[[{"header":{"parameterUnit":"m.s-1","parameterCategory":1,"la1":30.2991,"la2":30.254,"lo1":-89.0895,"lo2":-89.0444,"dy":0.0017,"dx":0.0017,"nx":28,"ny":28,"refTime":"2024-04-11T03:00:00:Z","depth":0,"parameterNumber":2,"parameterNumberName":"U-component_of_WINDS"},"data":[0,0,0,0,0,0,0,0,0,0,0,0,0,0,0,0,0,0,0,0,0,0,0,0,0,0,0,0,0,0,0,0,0,0,0,0,0,0,0,0,0,0,0,0,0,0,0,0,0,0,0,0,0,0,0,0,0,0,6.0761,6.0762,0,6.0815,6.0816,6.0817,6.0687,6.0683,6.0679,6.0675,6.0728,6.0733,6.0738,0,0,0,0,0,0,0,0,0,0,0,0,0,6.0545,6.0549,6.0761,6.0762,6.0762,6.0815,6.0816,6.0817,6.0688,6.0683,6.0678,6.0673,6.0726,6.0732,6.0739,0,0,0,0,0,0,0,0,0,0,0,0,0,6.0623,6.0551,6.0761,6.0704,6.07,6.0815,6.0816,6.0817,6.0689,6.0682,6.0676,6.0671,6.0724,6.0732,6.074,6.0912,0,0,6.0764,6.0767,0,0,0,0,0,0,0,0,6.0619,6.0631,6.0712,6.0708,6.0704,6.0738,6.0759,6.0849,6.069,6.0693,6.0675,6.0668,6.0736,6.0743,6.0766,6.0914,6.0916,6.0764,6.0769,6.0773,6.0775,0,0,0,0,0,0,0,6.0613,6.0628,6.0782,6.0713,6.0708,6.0676,6.068,6.0776,6.0748,6.0692,6.0683,6.0691,6.0733,6.0759,6.0767,6.0917,6.0764,6.0771,6.0776,6.0779,6.1211,6.1218,0,0,0,0,0,0,6.0615,6.0624,6.0781,6.0784,6.0645,6.0685,6.069,6.0733,6.0747,6.0743,6.0696,6.0685,6.0749,6.0758,6.0768,6.0972,6.0772,6.078,6.0784,6.1205,6.1213,6.122,0,0,0,0,0,0,6.0611,6.063,6.0778,6.0702,6.0718,6.0695,6.0745,6.0738,6.0764,6.075,6.0745,6.0729,6.0744,6.0757,6.0878,6.0972,6.0783,6.0791,6.1197,6.1207,6.1216,6.138,0,0,0,0,0,0,6.0605,6.063,6.0695,6.0704,6.0723,6.0888,6.0751,6.0743,6.0778,6.0764,6.0779,6.0775,6.074,6.0867,6.0886,6.0979,6.0797,6.1188,6.1201,6.1213,6.1366,6.1395,6.1419,0,0,0,0,0,6.0598,6.0738,6.0699,6.0718,6.0804,6.0894,6.0904,6.0862,6.0786,6.0851,6.0843,6.0775,6.0959,6.088,6.09,6.0998,6.1182,6.1197,6.1212,6.1354,6.1389,6.1418,0,0,0,0,0,0,6.0738,6.0738,6.0695,6.0841,6.0869,6.0871,6.0952,6.0899,6.0948,6.0932,6.0877,6.0881,6.1013,6.1017,6.093,6.1166,6.1057,6.1077,6.1159,6.1191,6.1217,6.1214,6.0803,0,0,0,0,0,6.0787,6.086,6.0855,6.0985,6.1001,6.0975,6.1013,6.0978,6.1004,6.1014,6.1014,6.1042,6.1105,6.1148,6.1206,6.1366,6.1369,6.1444,6.147,6.1492,6.151,6.1597,6.163,6.127,6.127,6.127,0,0,6.0886,6.0895,6.0944,6.1014,6.1031,6.1109,6.0986,6.1072,6.1129,6.1027,6.1141,6.1143,6.117,6.1312,6.1374,6.1319,6.161,6.1511,6.1529,6.1535,6.1616,6.165,6.168,6.128,6.1278,6.1277,0,0,6.1108,6.1122,6.1233,6.1253,6.1281,6.1264,6.1291,6.1302,6.13,6.1415,6.134,6.1407,6.1518,6.1541,6.1567,6.1801,6.1741,6.1822,6.1959,6.2045,6.2073,6.2098,6.2183,6.2214,6.1839,6.184,6.184,0,6.1228,6.1342,6.1296,6.1389,6.1422,6.1335,6.1448,6.1469,6.1515,6.154,6.1478,6.1617,6.1629,6.1776,6.1834,6.1857,6.1887,6.1819,6.2073,6.2097,6.212,6.22,6.2232,6.185,6.1848,6.1847,6.1847,0,6.149,6.157,6.1657,6.1705,6.1748,6.185,6.1819,6.1868,6.1831,6.182,6.1939,6.195,6.201,6.2042,6.2005,6.2185,6.2151,6.2082,6.1971,6.2165,6.2239,6.227,6.1864,6.186,6.1857,6.1855,0,0,6.1799,6.1823,6.1855,6.1877,6.1904,6.1965,6.2064,6.2124,6.2168,6.2203,6.2285,6.2383,6.232,6.235,6.2315,6.2391,6.2578,6.2312,6.2312,6.2362,6.2778,6.283,6.2866,6.2538,6.2544,6.2548,6.2776,0,6.2019,6.219,6.2153,6.2321,6.2396,6.2316,6.2402,6.2428,6.2422,6.2484,6.2475,6.2546,6.2457,6.2475,6.2546,6.254,6.266,6.2523,6.2614,6.2618,6.261,6.2905,6.296,6.3174,6.2805,6.281,6.2813,0,6.2298,6.2347,6.2523,6.254,6.257,6.2649,6.2702,6.2763,6.2791,6.278,6.2816,6.2768,6.2866,6.2756,6.2891,6.2799,6.2834,6.2837,6.2844,6.2851,6.2727,6.2921,6.3241,6.3274,6.2858,6.2855,6.2852,0,6.2508,6.2617,6.2737,6.2758,6.2781,6.2838,6.285,6.2872,6.2912,6.2958,6.2983,6.304,6.3072,6.3117,6.3086,6.3008,6.3228,6.3113,6.3222,6.3223,6.3271,6.3269,6.3603,6.3294,6.3293,6.3293,6.3292,0,6.2758,6.2869,6.2832,6.2906,6.3029,6.2986,6.3108,6.3111,6.3132,6.3205,6.3139,6.3209,6.3163,6.323,6.3206,6.3323,6.3337,6.3331,6.3324,6.3338,6.3339,6.336,6.3344,6.3301,6.3299,6.3298,6.3296,0,6.3013,6.2992,6.3118,6.313,6.3136,6.3227,6.3236,6.3306,6.3295,6.3389,6.3408,6.3391,6.3466,6.344,6.3519,6.3503,6.3652,6.3625,6.3644,6.3637,6.3747,6.3738,6.4107,6.4154,6.3814,6.3818,6.382,0,6.3174,6.3258,6.328,6.3325,6.3343,6.3416,6.3457,6.3418,6.3463,6.3503,6.3568,6.3638,6.3691,6.3815,6.3809,6.3871,6.3844,6.397,6.3853,6.3865,6.3848,6.3843,6.3852,6.3993,6.3997,6.4,6.4003,0,6.3462,6.3449,6.351,6.357,6.3621,6.3666,6.3704,6.3745,6.3708,6.3762,6.3839,6.3882,6.3965,6.4035,6.4091,6.4102,6.4048,6.404,6.4069,6.4084,6.4092,6.409,6.3708,6.4032,6.4029,6.4027,6.4025,6.4024,6.3675,6.3747,6.3775,6.3847,6.3873,6.3911,6.3978,6.3976,6.404,6.4106,6.4079,6.4168,6.4196,6.4265,6.4285,6.4354,6.4306,6.4347,6.4357,6.4368,6.4383,6.4081,6.4364,6.4363,6.4362,6.4362,6.4361,0,6.3961,6.3976,6.4043,6.41,6.4157,6.4102,6.4143,6.4194,6.4274,6.4305,6.4361,6.445,6.4519,6.452,6.4584,6.464,6.4616,6.4658,6.4653,6.4657,6.4422,6.4392,6.4676,6.4676,6.4676,6.4676,6.4676,6.4676,6.4117,6.4237,6.4227,6.436,6.4373,6.4462,6.449,6.4525,6.455,6.4654,6.4711,6.4712,6.4732,6.4797,6.4858,6.4857,6.4884,6.4935,6.4925,6.4705,6.4673,6.4644,6.4615,6.4941,6.4942,6.5154,6.5156,6.5157]},{"header":{"parameterUnit":"m.s-1","parameterCategory":1,"la1":30.2991,"la2":30.254,"lo1":-89.0895,"lo2":-89.0444,"dy":0.0017,"dx":0.0017,"nx":28,"ny":28,"refTime":"2024-04-11T03:00:00:Z","depth":0,"parameterNumber":3,"parameterNumberName":"V-component_of_WINDS"},"data":[0,0,0,0,0,0,0,0,0,0,0,0,0,0,0,0,0,0,0,0,0,0,0,0,0,0,0,0,0,0,0,0,0,0,0,0,0,0,0,0,0,0,0,0,0,0,0,0,0,0,0,0,0,0,0,0,0,0,1.697,1.6971,0,1.7114,1.7116,1.7117,1.7172,1.7172,1.7172,1.7171,1.7323,1.7327,1.7332,0,0,0,0,0,0,0,0,0,0,0,0,0,1.6744,1.6747,1.697,1.6971,1.6973,1.7114,1.7116,1.7118,1.7173,1.7172,1.7171,1.7171,1.7321,1.7327,1.7332,0,0,0,0,0,0,0,0,0,0,0,0,0,1.686,1.6749,1.6969,1.7017,1.7023,1.7113,1.7116,1.7118,1.7173,1.7172,1.7171,1.7171,1.732,1.7326,1.7333,1.7387,0,0,1.7353,1.7356,0,0,0,0,0,0,0,0,1.6853,1.6868,1.7009,1.7014,1.7021,1.7124,1.7092,1.7208,1.7173,1.7116,1.7171,1.717,1.7258,1.7269,1.7298,1.7394,1.74,1.7354,1.7358,1.736,1.7362,0,0,0,0,0,0,0,1.6845,1.6863,1.7027,1.7011,1.7018,1.7032,1.7048,1.7114,1.7189,1.7121,1.7125,1.7141,1.7261,1.7291,1.7302,1.7403,1.7353,1.7359,1.7363,1.7366,1.7548,1.7549,0,0,0,0,0,0,1.6829,1.6855,1.7022,1.7031,1.6934,1.7037,1.7055,1.7092,1.7188,1.7202,1.7142,1.7143,1.728,1.7294,1.7307,1.7377,1.736,1.7367,1.7371,1.7548,1.7549,1.755,0,0,0,0,0,0,1.6824,1.6843,1.7017,1.6945,1.6968,1.7042,1.7083,1.7095,1.7126,1.7204,1.7218,1.7159,1.728,1.7298,1.7366,1.7383,1.737,1.7376,1.7547,1.7548,1.7549,1.7515,0,0,0,0,0,0,1.6817,1.6841,1.6862,1.6945,1.6971,1.7072,1.7084,1.7098,1.7137,1.714,1.7224,1.7237,1.7281,1.7356,1.7373,1.7391,1.7381,1.7546,1.7547,1.7549,1.7515,1.7515,1.7515,0,0,0,0,0,1.6809,1.6848,1.6863,1.6883,1.6999,1.7073,1.7088,1.7137,1.7138,1.716,1.7209,1.7235,1.7377,1.7362,1.7382,1.7403,1.7545,1.7547,1.7549,1.7515,1.7515,1.7515,0,0,0,0,0,0,1.6768,1.686,1.6878,1.6944,1.7,1.7082,1.7112,1.7136,1.7194,1.7195,1.7254,1.7272,1.7335,1.7376,1.7357,1.7459,1.7463,1.7469,1.7431,1.7431,1.7431,1.7421,1.7386,0,0,0,0,0,1.6766,1.6818,1.6896,1.6947,1.6974,1.7037,1.7072,1.7104,1.7165,1.7189,1.7244,1.7303,1.7361,1.7398,1.7456,1.752,1.7539,1.7544,1.7544,1.7544,1.7549,1.7585,1.7588,1.7556,1.7556,1.7556,0,0,1.6765,1.6821,1.685,1.694,1.6987,1.704,1.7057,1.7113,1.7152,1.7198,1.7265,1.7307,1.7376,1.7442,1.7474,1.7478,1.7561,1.7546,1.7545,1.7551,1.7587,1.759,1.7593,1.7557,1.7557,1.7557,0,0,1.6788,1.6835,1.6883,1.6929,1.6999,1.7041,1.7051,1.7129,1.7158,1.7226,1.7261,1.7309,1.7408,1.7456,1.7493,1.753,1.7555,1.7547,1.7548,1.7582,1.7585,1.7587,1.76,1.7605,1.7552,1.7552,1.7552,0,1.6777,1.6857,1.6905,1.6957,1.6996,1.7037,1.7086,1.7128,1.7214,1.724,1.7242,1.7366,1.7416,1.7493,1.7501,1.753,1.7545,1.7539,1.758,1.7583,1.7586,1.76,1.7604,1.755,1.755,1.7551,1.7551,0,1.6839,1.6894,1.6924,1.7003,1.7045,1.7095,1.7152,1.7188,1.7215,1.7257,1.7324,1.7385,1.7455,1.7475,1.7504,1.7556,1.7556,1.7568,1.7574,1.7587,1.7601,1.7606,1.7548,1.7549,1.7549,1.7549,0,0,1.6844,1.6947,1.6957,1.6993,1.7072,1.7115,1.7167,1.7234,1.7263,1.732,1.7365,1.7446,1.7458,1.75,1.7534,1.7563,1.7588,1.7572,1.7575,1.7573,1.7649,1.7639,1.7645,1.7604,1.7606,1.7607,1.7643,0,1.6878,1.6971,1.7015,1.7089,1.7139,1.7178,1.7222,1.7276,1.7315,1.7363,1.7407,1.7463,1.7474,1.7499,1.7531,1.7579,1.7605,1.7577,1.7648,1.765,1.763,1.7652,1.7643,1.7674,1.7649,1.765,1.765,0,1.6931,1.6985,1.7064,1.7134,1.7157,1.7197,1.726,1.7306,1.7367,1.7393,1.7438,1.747,1.7526,1.7525,1.7603,1.7582,1.7614,1.7641,1.7644,1.7653,1.7652,1.7662,1.7686,1.769,1.7659,1.7658,1.7658,0,1.6926,1.7019,1.7078,1.7107,1.7191,1.7218,1.7254,1.7314,1.7351,1.7406,1.7431,1.7492,1.7527,1.7574,1.7621,1.7617,1.7694,1.7698,1.7718,1.7717,1.7734,1.7733,1.7763,1.7752,1.7752,1.7752,1.7752,0,1.696,1.7007,1.7076,1.7113,1.7165,1.7215,1.7266,1.7305,1.7357,1.7402,1.7439,1.748,1.7541,1.7589,1.7627,1.7685,1.77,1.7723,1.7733,1.772,1.7717,1.7743,1.7742,1.7754,1.7753,1.7753,1.7753,0,1.6965,1.7013,1.708,1.7152,1.7172,1.7207,1.727,1.7307,1.7346,1.7402,1.7418,1.748,1.7539,1.7591,1.767,1.7695,1.7754,1.7766,1.7734,1.7739,1.7756,1.7754,1.7805,1.7814,1.7796,1.7796,1.7796,0,1.6984,1.702,1.7096,1.7127,1.7163,1.7214,1.725,1.7299,1.7336,1.7406,1.7434,1.7495,1.7547,1.7639,1.7692,1.7752,1.7766,1.7779,1.7776,1.7761,1.7766,1.7764,1.7768,1.778,1.778,1.778,1.778,0,1.7012,1.7034,1.7085,1.7143,1.7185,1.7234,1.7285,1.7309,1.7367,1.7406,1.7466,1.7506,1.7584,1.7645,1.771,1.7748,1.7774,1.778,1.7788,1.7776,1.7756,1.7767,1.7734,1.7779,1.7779,1.7779,1.7779,1.7779,1.7025,1.7059,1.7116,1.7171,1.7214,1.7259,1.7296,1.7339,1.7389,1.7456,1.7482,1.7542,1.7601,1.769,1.7728,1.7776,1.7781,1.7792,1.7796,1.7798,1.7795,1.7747,1.7788,1.7788,1.7789,1.7789,1.7789,0,1.7056,1.7094,1.7144,1.7211,1.7254,1.7272,1.7328,1.7363,1.7415,1.7467,1.7516,1.7583,1.7641,1.7697,1.7758,1.7786,1.7799,1.78,1.7799,1.7807,1.7788,1.7775,1.7788,1.7788,1.7788,1.7788,1.7788,1.7788,1.7077,1.7134,1.7162,1.7239,1.7278,1.7336,1.7366,1.7408,1.7449,1.7522,1.757,1.7605,1.7658,1.7723,1.7776,1.7791,1.7812,1.781,1.7828,1.781,1.7809,1.7809,1.7797,1.7814,1.7814,1.7844,1.7844,1.7844]}]]